Location: Observatoire
(46.1952°N, 5.3391°E)
Time: 04:42:59
(UTC+01:00)

Explorer 7 - Pass Details

Date: 18 February 2026
Orbit: 430 x 542 km, 50.2° (Epoch: 7 March)

Event Time Altitude Azimuth Distance (km) Brightness Sun altitude
Rises 19:05:09 0° 288° (WNW) 2,498 11.6 -10.4°
Reaches altitude 10° 19:07:19 10° 294° (WNW) 1,642 10.3 -10.8°
Maximum altitude 19:10:55 49° 10° (N) 639 7.0 -11.4°
Enters shadow 19:13:30 18° 80° (E) 1,262 8.0 -11.8°
Drops below altitude 10° 19:14:42 10° 86° (E) 1,709 - -12.0°
Sets 19:16:59 0° 92° (E) 2,614 - -12.4°
